Franklin, VA

4:15 PM EDT on September 27, 2016 (GMT -0400)
Franklin Municipal-Rose

Weather History for KFKN - May, 2009

Change the Weather History Date:

Tuesday, May 26, 2009

  Actual Average (KSFQ) Record (KSFQ)
Temperature  
Mean Temperature 76 °F -  
Max Temperature 84 °F 77 °F 94 °F (1953)
Min Temperature 68 °F 58 °F 43 °F (1979)
Cooling Degree Days 11    
Growing Degree Days 26 (Base 50)    
Moisture  
Dew Point 68 °F    
Average Humidity 79    
Maximum Humidity 100    
Minimum Humidity 51    
Precipitation  
Precipitation 0.00 in - - ()
Sea Level Pressure  
Sea Level Pressure 30.02 in    
Wind  
Wind Speed 5 mph (SSE)    
Max Wind Speed 12 mph    
Max Gust Speed 17 mph    
Visibility 10 miles    
Events      
Averages and records for this station are not official NWS values.
T = Trace of Precipitation, MM = Missing Value Source: NWS Daily Summary

Daily Weather History Graph

Daily Weather History Graph

Search for Another Location

Airport or City:

Trip Planner

Search our weather history database for the weather conditions in past years. The results will help you decide how hot, cold, wet, or windy it might be!

Date:

Astronomy

May. 26, 2009 Rise Set
Actual Time 5:52 AM EDT 8:16 PM EDT
Civil Twilight 5:23 AM EDT 8:46 PM EDT
Nautical Twilight 4:46 AM EDT 9:23 PM EDT
Astronomical Twilight 4:06 AM EDT 10:03 PM EDT
Moon 7:40 AM EDT (5/26) 11:01 PM EDT (5/26)
Length of Visible Light 15h 23m
Length of Day
14h 24m
Waxing Crescent, 7% of the Moon is Illuminated
May 26
Waxing Crescent
May 30
First Quarter
Jun 7
Full
Jun 15
Last Quarter
Jun 22
New

Hourly Weather History & Observations

Time (EDT) Temp. Heat Index Dew Point Humidity Pressure Visibility Wind Dir Wind Speed Gust Speed Precip Events Conditions
12:00 AM 73.4 °F - 69.8 °F 88% 30.01 in 10.0 mi South 4.6 mph - N/A   Mostly Cloudy
12:20 AM 73.4 °F - 69.8 °F 88% 30.02 in 10.0 mi South 4.6 mph - N/A   Overcast
12:40 AM 73.4 °F - 69.8 °F 88% 30.02 in 10.0 mi South 4.6 mph - N/A   Mostly Cloudy
1:00 AM 73.4 °F - 69.8 °F 88% 30.02 in 10.0 mi South 4.6 mph - N/A   Mostly Cloudy
1:20 AM 71.6 °F - 69.8 °F 94% 30.02 in 10.0 mi South 4.6 mph - N/A   Mostly Cloudy
1:40 AM 71.6 °F - 69.8 °F 94% 30.02 in 10.0 mi South 6.9 mph - N/A   Scattered Clouds
2:00 AM 71.6 °F - 69.8 °F 94% 30.01 in 10.0 mi South 6.9 mph - N/A   Scattered Clouds
2:20 AM 71.6 °F - 69.8 °F 94% 30.02 in 10.0 mi South 4.6 mph - N/A   Scattered Clouds
2:40 AM 71.6 °F - 69.8 °F 94% 30.02 in 10.0 mi South 3.5 mph - N/A   Scattered Clouds
3:00 AM 69.8 °F - 68.0 °F 94% 30.01 in 10.0 mi Calm Calm - N/A   Clear
3:20 AM 69.8 °F - 68.0 °F 94% 30.01 in 10.0 mi South 3.5 mph - N/A   Clear
3:40 AM 69.8 °F - 68.0 °F 94% 30.01 in 10.0 mi South 4.6 mph - N/A   Clear
4:00 AM 69.8 °F - 68.0 °F 94% 30.01 in 10.0 mi South 3.5 mph - N/A   Clear
4:20 AM 69.8 °F - 68.0 °F 94% 30.01 in 10.0 mi Calm Calm - N/A   Unknown
4:40 AM 69.8 °F - 68.0 °F 94% 30.01 in 10.0 mi Calm Calm - N/A   Unknown
5:00 AM 68.0 °F - 68.0 °F 100% 30.01 in 10.0 mi Calm Calm - N/A   Unknown
5:20 AM 68.0 °F - 66.2 °F 94% 30.01 in 7.0 mi Calm Calm - N/A   Unknown
5:40 AM 68.0 °F - 66.2 °F 94% 30.01 in 7.0 mi Calm Calm - N/A   Unknown
6:00 AM 68.0 °F - 66.2 °F 94% 30.02 in 10.0 mi Calm Calm - N/A   Unknown
6:20 AM 68.0 °F - 66.2 °F 94% 30.02 in 5.0 mi Calm Calm - N/A   Unknown
6:40 AM 68.0 °F - 68.0 °F 100% 30.02 in 7.0 mi Calm Calm - N/A   Unknown
7:00 AM 69.8 °F - 69.8 °F 100% 30.03 in 10.0 mi Calm Calm - N/A   Scattered Clouds
7:20 AM 71.6 °F - 69.8 °F 94% 30.03 in 10.0 mi Calm Calm - N/A   Clear
7:40 AM 71.6 °F - 71.6 °F 100% 30.03 in 10.0 mi SSE 3.5 mph - N/A   Clear
8:00 AM 73.4 °F - 69.8 °F 88% 30.04 in 10.0 mi SSE 5.8 mph - N/A   Scattered Clouds
8:20 AM 73.4 °F - 71.6 °F 94% 30.04 in 10.0 mi SE 4.6 mph - N/A   Scattered Clouds
9:00 AM 75.2 °F - 71.6 °F 89% 30.05 in 10.0 mi SSE 5.8 mph - N/A   Clear
9:20 AM 78.8 °F - 71.6 °F 78% 30.05 in 10.0 mi SSE 4.6 mph - N/A   Scattered Clouds
9:40 AM 78.8 °F - 69.8 °F 74% 30.05 in 10.0 mi SSW 6.9 mph - N/A   Scattered Clouds
10:00 AM 78.8 °F - 69.8 °F 74% 30.06 in 10.0 mi South 6.9 mph - N/A   Clear
10:20 AM 78.8 °F - 69.8 °F 74% 30.06 in 10.0 mi SSE 6.9 mph - N/A   Scattered Clouds
10:40 AM 78.8 °F - 69.8 °F 74% 30.06 in 10.0 mi SSE 5.8 mph - N/A   Scattered Clouds
11:00 AM 82.4 °F 86.3 °F 69.8 °F 66% 30.06 in 10.0 mi South 6.9 mph - N/A   Scattered Clouds
11:20 AM 80.6 °F 83.9 °F 69.8 °F 70% 30.06 in 10.0 mi SSE 3.5 mph - N/A   Scattered Clouds
11:40 AM 82.4 °F 86.3 °F 69.8 °F 66% 30.06 in 10.0 mi SSE 6.9 mph - N/A   Scattered Clouds
12:00 PM 84.2 °F 87.3 °F 68.0 °F 58% 30.05 in 10.0 mi ESE 5.8 mph - N/A   Scattered Clouds
12:20 PM 84.2 °F 86.6 °F 66.2 °F 55% 30.04 in 10.0 mi South 6.9 mph - N/A   Scattered Clouds
12:40 PM 84.2 °F 86.6 °F 66.2 °F 55% 30.04 in 10.0 mi South 4.6 mph - N/A   Scattered Clouds
1:00 PM 82.4 °F 84.6 °F 66.2 °F 58% 30.04 in - South 6.9 mph - N/A   Mostly Cloudy
1:20 PM 84.2 °F 87.3 °F 68.0 °F 58% 30.03 in 10.0 mi ESE 5.8 mph - N/A   Mostly Cloudy
1:40 PM 84.2 °F 86.6 °F 66.2 °F 55% 30.02 in 10.0 mi SE 9.2 mph - N/A   Scattered Clouds
2:00 PM 82.4 °F 86.3 °F 69.8 °F 66% 30.02 in 10.0 mi East 10.4 mph - N/A   Mostly Cloudy
2:20 PM 82.4 °F 86.3 °F 69.8 °F 66% 30.02 in 10.0 mi East 8.1 mph - N/A   Overcast
2:40 PM 84.2 °F 88.4 °F 69.8 °F 62% 30.01 in 10.0 mi East 9.2 mph - N/A   Mostly Cloudy
3:00 PM 84.2 °F 86.6 °F 66.2 °F 55% 30.00 in 10.0 mi SSE 9.2 mph 16.1 mph N/A   Scattered Clouds
3:20 PM 82.4 °F 86.3 °F 69.8 °F 66% 30.00 in 10.0 mi East 8.1 mph - N/A   Mostly Cloudy
3:40 PM 84.2 °F 86.6 °F 66.2 °F 55% 30.00 in 7.0 mi SE 8.1 mph - N/A   Scattered Clouds
4:00 PM 84.2 °F 85.6 °F 64.4 °F 51% 30.00 in 10.0 mi SE 8.1 mph - N/A   Clear
4:20 PM 84.2 °F 86.6 °F 66.2 °F 55% 29.99 in 10.0 mi SE 11.5 mph - N/A   Scattered Clouds
4:40 PM 82.4 °F 83.9 °F 64.4 °F 54% 29.99 in 10.0 mi SE 8.1 mph 17.3 mph N/A   Mostly Cloudy
5:00 PM 82.4 °F 84.6 °F 66.2 °F 58% 29.99 in 10.0 mi SE 6.9 mph - N/A   Mostly Cloudy
5:20 PM 82.4 °F 83.9 °F 64.4 °F 54% 29.99 in 10.0 mi ESE 9.2 mph - N/A   Scattered Clouds
5:40 PM 82.4 °F 85.4 °F 68.0 °F 62% 29.99 in 10.0 mi East 9.2 mph - N/A   Clear
6:00 PM 80.6 °F 83.2 °F 68.0 °F 65% 29.99 in 10.0 mi East 8.1 mph - N/A   Mostly Cloudy
6:20 PM 78.8 °F - 69.8 °F 74% 29.99 in 10.0 mi East 8.1 mph - N/A   Mostly Cloudy
6:40 PM 78.8 °F - 69.8 °F 74% 29.99 in 10.0 mi East 9.2 mph - N/A   Scattered Clouds
7:00 PM 78.8 °F - 69.8 °F 74% 29.99 in 10.0 mi ESE 6.9 mph - N/A   Scattered Clouds
7:20 PM 78.8 °F - 69.8 °F 74% 29.99 in 10.0 mi ESE 8.1 mph - N/A   Scattered Clouds
7:40 PM 77.0 °F - 69.8 °F 78% 30.00 in 10.0 mi East 9.2 mph - N/A   Scattered Clouds
8:00 PM 75.2 °F - 69.8 °F 83% 30.00 in 10.0 mi East 8.1 mph - N/A   Scattered Clouds
8:20 PM 75.2 °F - 69.8 °F 83% 30.00 in 10.0 mi East 5.8 mph - N/A   Scattered Clouds
8:40 PM 73.4 °F - 69.8 °F 88% 30.00 in 10.0 mi East 6.9 mph - N/A   Scattered Clouds
9:00 PM 73.4 °F - 69.8 °F 88% 30.01 in 10.0 mi East 6.9 mph - N/A   Clear
9:20 PM 73.4 °F - 69.8 °F 88% 30.01 in 10.0 mi ESE 5.8 mph - N/A   Clear
9:40 PM 73.4 °F - 69.8 °F 88% 30.02 in 10.0 mi ESE 5.8 mph - N/A   Clear
10:00 PM 71.6 °F - 68.0 °F 88% 30.03 in 10.0 mi ESE 5.8 mph - N/A   Clear
10:20 PM 71.6 °F - 68.0 °F 88% 30.03 in 10.0 mi ESE 5.8 mph - N/A   Clear
11:00 PM 71.6 °F - 68.0 °F 88% 30.04 in 10.0 mi ESE 4.6 mph - N/A   Clear
11:01 PM 71.6 °F - 68.0 °F 88% 30.04 in 10.0 mi ESE 4.6 mph - N/A   Clear
11:20 PM 69.8 °F - 68.0 °F 94% 30.03 in 10.0 mi ESE 4.6 mph - N/A   Clear
11:40 PM 69.8 °F - 68.0 °F 94% 30.03 in 10.0 mi East 3.5 mph - N/A   Clear